User: anonymous   Login
Location: Unspecified
(0.0000°N, 0.0000°E)
Time: 14:34:23
(UTC+00:00)
Language:

ADEOS II - Orbit

View from above orbital plane
View from above orbital plane
View from above satellite
View from above satellite

Ground track
Ground track

The orbit data is extracted from the following two-line orbital elements,

1 27597U 02056A   18319.90513802  .00000039  00000-0  33265-4 0  9998
2 27597  98.4422 274.6291 0000264 137.4829 222.6372 14.27373582829137
Epoch (UTC): 15 November 2018 21:43:23
Eccentricity: 0.0000264
inclination: 98.4422°
perigee height: 800 km
apogee height: 801 km
right ascension of ascending node: 274.6291°
argument of perigee: 137.4829°
revolutions per day: 14.27373582
mean anomaly at epoch: 222.6372°
orbit number at epoch: 82913

The dashed part of the orbit path shows where the satellite is in the earth's shadow,  

DLR